Printer-friendly version

IAU Minor Planet Center

Minor Planet Center

MPEC 2009-U101: 2009 UZ19

The following Minor Planet Electronic Circular may be linked-to from your own Web pages, but must not otherwise be redistributed electronically.


Read MPEC 2009-U100 Read MPEC 2009-U102


M.P.E.C. 2009-U101                               Issued 2009 Oct. 25, 23:00 UT

     The Minor Planet Electronic Circulars contain information on unusual
         minor planets and routine data on comets.  They are published
   on behalf of Commission 20 of the International Astronomical Union by the
          Minor Planet Center, Smithsonian Astrophysical Observatory,
                          Cambridge, MA 02138, U.S.A.

             Prepared using the Tamkin Foundation Computer Network

                              MPC@CFA.HARVARD.EDU
          URL http://www.cfa.harvard.edu/iau/mpc.html  ISSN 1523-6714

                                   2009 UZ19

Observations:
     K09U19Z* C2009 10 25.29275 03 12 50.27 +01 41 55.2          19.2   EU101704
     K09U19Z  C2009 10 25.30616 03 13 09.32 +01 48 08.4          19.3   EU101704
     K09U19Z  C2009 10 25.33276 03 13 47.15 +02 00 27.4          19.5   EU101704
     K09U19Z  C2009 10 25.34608 03 14 06.10 +02 06 37.8          19.6   EU101704
     K09U19Z  C2009 10 25.90694 03 29 21.59 +06 26 00.6          18.1 R EU101J95
     K09U19Z  C2009 10 25.90842 03 29 23.80 +06 26 43.5          19.2 R EU101J95
     K09U19Z  C2009 10 25.90992 03 29 26.19 +06 27 25.0          18.3 R EU101J95

Observer details:
704 Lincoln Laboratory ETS, New Mexico.  Observers M. Bezpalko, D. Torres,
    R. Kracke, G. Spitz, M. Blythe.  Measurer J. Stuart.  1.0-m f/2.15
    reflector + CCD.
J95 Great Shefford.  Observer P. Birtwhistle.  0.40-m f/6.0 Schmidt-Cassegrain
    + CCD.

Orbital elements:
2009 UZ19                                                Earth MOID = 0.0175 AU
Epoch 2010 Jan. 4.0 TT = JDT 2455200.5                  MPC
M  29.98151              (2000.0)            P               Q
n   0.47074946     Peri.    4.97743     +0.76479740     -0.64205317
a   1.6366011      Node    35.15275     +0.58785927     +0.66150702
e   0.3833145      Incl.    5.32272     +0.26364070     +0.38752573
P   2.09           H   26.3           G   0.15           U   8
Residuals in seconds of arc
091025 704  0.2+  0.3-    091025 704  0.1+  0.0     091025 J95  0.4+  0.1-
091025 704  0.3-  0.3+    091025 J95  0.4+  0.6-
091025 704  0.1-  0.0     091025 J95  0.7-  0.7+

Ephemeris:
2009 UZ19                a,e,i = 1.64, 0.38, 5                   q = 1.0093
Date    TT    R. A. (2000) Decl.     Delta      r     Elong.  Phase     V
2009 10 26    03 31.59   +07 14.8    0.0187   1.011   157.2    22.4    18.8
2009 10 27    03 58.88   +14 50.6    0.0190   1.011   152.4    27.1    18.9
2009 10 28    04 26.13   +21 46.1    0.0199   1.010   146.3    33.1    19.2
2009 10 29    04 52.58   +27 40.9    0.0213   1.010   140.2    39.0    19.5
2009 10 30    05 17.56   +32 29.5    0.0231   1.010   134.8    44.2    19.8
2009 10 31    05 40.65   +36 17.1    0.0252   1.009   130.3    48.6    20.2
2009 11 01    06 01.60   +39 13.6    0.0276   1.009   126.6    52.2    20.4
2009 11 02    06 20.39   +41 29.5    0.0301   1.009   123.5    55.0    20.7
2009 11 03    06 37.08   +43 14.1    0.0328   1.009   121.1    57.3    21.0
2009 11 04    06 51.84   +44 35.2    0.0356   1.010   119.2    59.0    21.2
2009 11 05    07 04.87   +45 38.4    0.0384   1.010   117.7    60.3    21.4
2009 11 06    07 16.35   +46 28.1    0.0413   1.010   116.6    61.3    21.6
2009 11 07    07 26.47   +47 07.7    0.0443   1.011   115.7    62.1    21.8
2009 11 08    07 35.41   +47 39.5    0.0473   1.012   115.0    62.6    21.9
2009 11 09    07 43.32   +48 05.3    0.0503   1.013   114.6    62.9    22.1
2009 11 10    07 50.32   +48 26.5    0.0533   1.013   114.3    63.0    22.2
2009 11 11    07 56.53   +48 44.1    0.0564   1.014   114.1    63.0    22.3
2009 11 12    08 02.05   +48 58.9    0.0594   1.016   114.1    62.9    22.4
2009 11 13    08 06.95   +49 11.5    0.0625   1.017   114.1    62.7    22.5
2009 11 14    08 11.30   +49 22.2    0.0655   1.018   114.3    62.4    22.6
2009 11 15    08 15.16   +49 31.5    0.0686   1.020   114.5    62.0    22.7

Timothy B. Spahr             (C) Copyright 2009 MPC           M.P.E.C. 2009-U101

Read MPEC 2009-U100 Read MPEC 2009-U102

Valid HTML 4.01!